SCOUT X-4 R/B, 1815

Orbit data source: Space-Track

SCOUT X-4 R/B, 1815 is space debris in LEO originally from a launch on Mon, 06 Dec 1965 UTC launched from the Air Force Western Test Range (AFWTR). Debris objects in space refer to the collection of defunct objects orbiting the Earth. Examples of debris include non-operational satellites, rocket bodies, and fragments generated from explosions, collisions, or faulty payload assembly.

Loading next visibility...
Identifier
1815, 1965-101B
Orbit
LEO
Country
Flag of USUS
Related business
Manufacturer
ABL
Mission
Spacecraft
Bus & Motor
ALTAIR, Unknown motor
Mass
33 kg wet, 33 kg dry
Launch date (UTC)
1965-12-06 (61 years ago)
Launch vehicle
Unknown
Launch site
Air Force Western Test Range (AFWTR)
Object type
Payload
Rocket body
Debris
Shape & HBR
CYL, 1.1 m
Radar Cross Section
Medium (>0.1 m² and <1 m²)

Expand to show TLE details & history
Last TLE update: 9 hours ago

TLE from 9 hours ago
0 SCOUT X-4 R/B
1 01815U 65101B   26266.20896743  .00001509  00000-0  14965-3 0  9992
2 01815  75.8415 173.6883 0006713 244.0399 116.0102 14.92295520 82843
Epoch: 2026-09-23T05:00Z
TLE epoch observation values (Epoch: 2026-09-23T05:00:54.785Z)
Latitude
-0.00012°
Longitude
96.39662°
Altitude
595.613 km
Speed
7.561 km/s
True Right ascension
11h 34m 45s
True Declination
0° 00' 00"
Sunlit
Object was in daylight at epoch
Visualization orbit readout
Latitude
Unknown
Longitude
Unknown
Altitude
Unknown
Speed
Unknown
Apparent Right ascension
Unknown
Apparent Declination
Unknown
Sunlit
N/A
Visualization observer readout
Local Sidereal Time
07:32:16
Azimuth
Unknown
Elevation
Unknown
Doppler factor
Unknown
Orbital elements
Apogee altitude
592.869 km
Perigee altitude
583.516 km
Semi-major axis
6,966.329 km
Eccentricity
0.00067
Inclination
75.8415°
RAAN
173.6883°
Arg. of periapsis
244.0399°
True anomaly
116.07931°
Mean anomaly
116.0102°
Eccentric anomaly
116.04476°
Mean motion
3.73282 °/min
Orbital period
96.44 mins
BSTAR
0.00014965
Loading maneuver chart data...
Computing Atmospheric mass density...
Loading historical data...
Loading historical data...
Loading historical data...
Loading historical data...
Loading historical data...
Loading historical data...
Loading historical data...

Documentation

Showing up to 5 results
|